ACI500 NWWW-VTBS

Flight info

Callsign ACI500
Flight time 9h 45m
Altitude 30000
Route TEPAM3E TEPAM DCT 21S163E 20S160E 1900S15725E 18S155E 16S150E/N0484F320 DCT TENCH DCT 1206S14347E DCT BEGMI/N0481F340 DCT EROSY W54 AMN DCT ENTEG DCT SAMRI DCT AVNIM/N0473F360 DCT MAMOK M768 AKMON/K0878F360 M768 TSH R468 SAPEN/N0471F360 R468 ELMOP P629 NUGPA TUMGA1C
Aircraft A339/H-SADE1E2E3GHIJ3J5M1P2RWXY/LB2D1

Departure

Time 2026-04-24 12:19
Airport La Tontouta International Airport (NWWW)

Arrival

Time 2026-04-24 22:05
Airport Suvarnabhumi Airport (VTBS)
Time Latitude Longitude Altitude Speed Heading
2026-04-24 11:51 -22.01325 166.21570 73 ft 0 kts 121°
2026-04-24 12:07 -22.01324 166.21570 73 ft 0 kts 121°
2026-04-24 12:09 -22.01321 166.21564 77 ft 2 kts 121°
2026-04-24 12:09 -22.01314 166.21550 79 ft 2 kts 121°
2026-04-24 12:09 -22.01306 166.21536 79 ft 2 kts 130°
2026-04-24 12:09 -22.01294 166.21526 77 ft 2 kts 158°
2026-04-24 12:10 -22.01279 166.21523 75 ft 2 kts 180°
2026-04-24 12:10 -22.01264 166.21524 73 ft 2 kts 202°
2026-04-24 12:10 -22.01257 166.21529 72 ft 1 kts 213°
2026-04-24 12:11 -22.01254 166.21530 72 ft 0 kts 211°
2026-04-24 12:13 -22.01262 166.21526 72 ft 3 kts 211°
2026-04-24 12:14 -22.01291 166.21506 71 ft 6 kts 211°
2026-04-24 12:14 -22.01343 166.21474 70 ft 10 kts 210°
2026-04-24 12:14 -22.01412 166.21431 68 ft 13 kts 210°
2026-04-24 12:14 -22.01469 166.21350 65 ft 14 kts 272°
2026-04-24 12:15 -22.01422 166.21246 63 ft 16 kts 302°
2026-04-24 12:15 -22.01358 166.21135 61 ft 18 kts 301°
2026-04-24 12:15 -22.01292 166.21016 59 ft 19 kts 301°
2026-04-24 12:15 -22.01218 166.20886 55 ft 20 kts 301°
2026-04-24 12:16 -22.01141 166.20747 52 ft 21 kts 301°
2026-04-24 12:16 -22.01063 166.20609 51 ft 21 kts 301°
2026-04-24 12:16 -22.00986 166.20474 52 ft 20 kts 301°
2026-04-24 12:16 -22.00914 166.20344 53 ft 19 kts 301°
2026-04-24 12:17 -22.00847 166.20227 56 ft 17 kts 301°
2026-04-24 12:17 -22.00789 166.20123 59 ft 15 kts 301°
2026-04-24 12:17 -22.00730 166.20032 61 ft 13 kts 322°
2026-04-24 12:17 -22.00688 166.19995 62 ft 2 kts 282°
2026-04-24 12:18 -22.00698 166.19981 62 ft 2 kts 191°
2026-04-24 12:18 -22.00718 166.20000 61 ft 5 kts 126°
2026-04-24 12:18 -22.00772 166.20096 60 ft 39 kts 121°
2026-04-24 12:18 -22.01023 166.20538 52 ft 97 kts 121°
2026-04-24 12:19 -22.01464 166.21320 64 ft 145 kts 121°
2026-04-24 12:19 -22.02059 166.22380 140 ft 179 kts 119°
2026-04-24 12:19 -22.02719 166.23524 626 ft 182 kts 120°
2026-04-24 12:19 -22.03389 166.24684 1214 ft 184 kts 120°
2026-04-24 12:20 -22.04144 166.25783 1808 ft 187 kts 139°
2026-04-24 12:20 -22.05374 166.26346 2151 ft 208 kts 173°
2026-04-24 12:20 -22.06854 166.25990 2446 ft 234 kts 212°
2026-04-24 12:20 -22.07937 166.24585 2765 ft 258 kts 251°
2026-04-24 12:21 -22.08031 166.22630 3243 ft 269 kts 288°
2026-04-24 12:21 -22.07185 166.20847 3674 ft 273 kts 307°
2026-04-24 12:21 -22.06034 166.19212 4135 ft 277 kts 309°
2026-04-24 12:21 -22.04893 166.17564 4748 ft 276 kts 307°
2026-04-24 12:22 -22.03797 166.15860 5378 ft 275 kts 305°
2026-04-24 12:22 -22.02757 166.14149 5974 ft 274 kts 304°
2026-04-24 12:22 -22.01738 166.12413 6541 ft 274 kts 303°
2026-04-24 12:22 -22.00734 166.10678 7101 ft 274 kts 303°
2026-04-24 12:23 -21.99736 166.08942 7663 ft 273 kts 302°
2026-04-24 12:23 -21.98738 166.07204 8181 ft 275 kts 302°
2026-04-24 12:23 -21.97742 166.05437 8716 ft 275 kts 297°
2026-04-24 12:23 -21.97149 166.03499 9246 ft 276 kts 282°
2026-04-24 12:24 -21.96808 166.01466 9799 ft 276 kts 280°
2026-04-24 12:24 -21.96486 165.99448 10291 ft 277 kts 281°
2026-04-24 12:24 -21.96137 165.97365 10556 ft 288 kts 282°
2026-04-24 12:24 -21.95755 165.95216 10776 ft 300 kts 282°
2026-04-24 12:25 -21.95344 165.92972 10989 ft 313 kts 282°
2026-04-24 12:25 -21.94904 165.90614 11205 ft 325 kts 282°
2026-04-24 12:25 -21.94448 165.88193 11412 ft 337 kts 282°
2026-04-24 12:25 -21.93977 165.85695 11616 ft 349 kts 282°
2026-04-24 12:26 -21.93488 165.83112 11851 ft 359 kts 282°
2026-04-24 12:26 -21.92986 165.80469 12326 ft 361 kts 282°
2026-04-24 12:26 -21.92478 165.77797 12850 ft 363 kts 282°
2026-04-24 12:26 -21.91982 165.75171 13322 ft 365 kts 282°
2026-04-24 12:27 -21.91480 165.72485 13763 ft 368 kts 282°
2026-04-24 12:27 -21.90975 165.69786 14243 ft 369 kts 282°
2026-04-24 12:27 -21.90470 165.67079 14726 ft 370 kts 282°
2026-04-24 12:27 -21.89964 165.64377 15234 ft 370 kts 282°
2026-04-24 12:28 -21.89450 165.61639 15716 ft 371 kts 282°
2026-04-24 12:28 -21.88940 165.58920 16137 ft 373 kts 282°
2026-04-24 12:28 -21.88427 165.56187 16574 ft 375 kts 282°
2026-04-24 12:28 -21.87914 165.53451 17044 ft 375 kts 282°
2026-04-24 12:29 -21.87398 165.50709 17462 ft 376 kts 282°
2026-04-24 12:29 -21.86874 165.47931 17910 ft 377 kts 282°
2026-04-24 12:29 -21.86356 165.45174 18350 ft 378 kts 283°
2026-04-24 12:29 -21.85842 165.42438 18755 ft 379 kts 283°
2026-04-24 12:30 -21.85317 165.39651 19144 ft 381 kts 283°
2026-04-24 12:30 -21.84789 165.36864 19538 ft 382 kts 283°
2026-04-24 12:30 -21.84257 165.34062 19945 ft 383 kts 284°
2026-04-24 12:30 -21.83728 165.31267 20362 ft 384 kts 284°
2026-04-24 12:31 -21.83189 165.28430 20753 ft 385 kts 284°
2026-04-24 12:31 -21.82653 165.25619 21150 ft 386 kts 284°
2026-04-24 12:31 -21.82119 165.22797 21548 ft 387 kts 284°
2026-04-24 12:31 -21.81580 165.19959 21932 ft 388 kts 285°
2026-04-24 12:32 -21.81038 165.17116 22309 ft 389 kts 284°
2026-04-24 12:32 -21.80494 165.14262 22664 ft 390 kts 284°
2026-04-24 12:32 -21.79951 165.11412 23002 ft 392 kts 285°
2026-04-24 12:32 -21.79407 165.08554 23280 ft 394 kts 285°
2026-04-24 12:33 -21.78854 165.05656 23611 ft 395 kts 285°
2026-04-24 12:33 -21.78298 165.02731 23882 ft 398 kts 286°
2026-04-24 12:33 -21.77743 164.99844 24157 ft 400 kts 285°
2026-04-24 12:33 -21.77177 164.96905 24460 ft 402 kts 285°
2026-04-24 12:34 -21.76611 164.93947 24763 ft 403 kts 286°
2026-04-24 12:34 -21.76048 164.91014 25025 ft 405 kts 286°
2026-04-24 12:34 -21.75474 164.88025 25292 ft 407 kts 287°
2026-04-24 12:34 -21.74903 164.85066 25568 ft 408 kts 287°
2026-04-24 12:35 -21.74327 164.82066 25826 ft 410 kts 287°
2026-04-24 12:35 -21.73746 164.79073 26090 ft 411 kts 287°
2026-04-24 12:35 -21.73166 164.76059 26368 ft 412 kts 287°
2026-04-24 12:35 -21.72585 164.73056 26563 ft 415 kts 287°
2026-04-24 12:36 -21.71998 164.70029 26799 ft 416 kts 288°
2026-04-24 12:36 -21.71409 164.66971 27016 ft 418 kts 288°
2026-04-24 12:36 -21.70820 164.63940 27211 ft 420 kts 287°
2026-04-24 12:36 -21.70224 164.60864 27438 ft 421 kts 288°
2026-04-24 12:37 -21.69623 164.57768 27664 ft 422 kts 288°
2026-04-24 12:37 -21.69025 164.54688 27861 ft 424 kts 288°
2026-04-24 12:37 -21.68417 164.51582 28066 ft 425 kts 288°
2026-04-24 12:37 -21.67812 164.48469 28317 ft 426 kts 288°
2026-04-24 12:38 -21.67213 164.45390 28561 ft 426 kts 288°
2026-04-24 12:38 -21.66602 164.42253 28803 ft 426 kts 289°
2026-04-24 12:38 -21.65991 164.39139 29051 ft 426 kts 289°
2026-04-24 12:39 -21.64153 164.29776 29738 ft 429 kts 289°
2026-04-24 12:39 -21.63538 164.26640 29996 ft 429 kts 289°
2026-04-24 12:40 -21.62306 164.20386 30067 ft 432 kts 289°
2026-04-24 12:40 -21.60896 164.14159 30074 ft 425 kts 294°
2026-04-24 12:41 -21.58843 164.08279 30074 ft 420 kts 300°
2026-04-24 12:41 -21.56152 164.02740 30072 ft 416 kts 305°
2026-04-24 12:42 -21.53261 163.97377 30072 ft 416 kts 304°
2026-04-24 12:42 -21.50349 163.91989 30071 ft 417 kts 305°
2026-04-24 12:43 -21.47420 163.86597 30072 ft 418 kts 305°
2026-04-24 12:43 -21.44496 163.81223 30070 ft 419 kts 305°
2026-04-24 12:44 -21.41569 163.75844 30071 ft 418 kts 305°
2026-04-24 12:44 -21.38630 163.70445 30072 ft 419 kts 305°
2026-04-24 12:45 -21.35693 163.65063 30066 ft 418 kts 304°
2026-04-24 12:45 -21.32767 163.59706 30068 ft 418 kts 304°
2026-04-24 12:46 -21.29819 163.54306 30068 ft 419 kts 305°
2026-04-24 12:46 -21.26874 163.48926 30071 ft 418 kts 305°
2026-04-24 12:47 -21.23942 163.43573 30067 ft 418 kts 304°
2026-04-24 12:47 -21.21011 163.38220 30068 ft 419 kts 305°
2026-04-24 12:48 -21.18044 163.32816 30066 ft 420 kts 305°
2026-04-24 12:48 -21.15105 163.27466 30065 ft 419 kts 305°
2026-04-24 12:49 -21.12134 163.22061 30062 ft 421 kts 305°
2026-04-24 12:49 -21.09173 163.16670 30063 ft 421 kts 305°
2026-04-24 12:50 -21.06213 163.11293 30058 ft 420 kts 305°
2026-04-24 12:50 -21.03246 163.05916 30060 ft 419 kts 305°
2026-04-24 12:51 -21.00526 163.00389 30063 ft 422 kts 300°
2026-04-24 12:51 -20.98259 162.94571 30063 ft 428 kts 296°
2026-04-24 12:52 -20.96293 162.88545 30067 ft 427 kts 296°
2026-04-24 12:52 -20.94352 162.82570 30064 ft 428 kts 295°
2026-04-24 12:53 -20.92404 162.76578 30066 ft 427 kts 295°
2026-04-24 12:53 -20.90459 162.70593 30066 ft 427 kts 295°
2026-04-24 12:54 -20.88519 162.64619 30068 ft 427 kts 295°
2026-04-24 12:54 -20.86570 162.58617 30063 ft 426 kts 295°
2026-04-24 12:55 -20.84629 162.52660 30073 ft 427 kts 295°
2026-04-24 12:55 -20.82683 162.46698 30070 ft 428 kts 295°
2026-04-24 12:56 -20.80728 162.40712 30067 ft 427 kts 295°
2026-04-24 12:56 -20.78764 162.34698 30071 ft 427 kts 295°
2026-04-24 12:57 -20.76811 162.28746 30072 ft 426 kts 295°
2026-04-24 12:57 -20.74852 162.22761 30072 ft 427 kts 295°
2026-04-24 12:58 -20.72900 162.16823 30075 ft 424 kts 295°
2026-04-24 12:58 -20.70958 162.10906 30070 ft 426 kts 296°
2026-04-24 12:59 -20.68988 162.04932 30077 ft 426 kts 295°
2026-04-24 12:59 -20.67022 161.98969 30073 ft 425 kts 295°
2026-04-24 13:00 -20.65062 161.93019 30071 ft 427 kts 295°
2026-04-24 13:00 -20.63091 161.87051 30075 ft 426 kts 295°
2026-04-24 13:01 -20.61126 161.81114 30073 ft 426 kts 295°
2026-04-24 13:01 -20.59167 161.75209 30072 ft 426 kts 295°
2026-04-24 13:02 -20.57195 161.69261 30072 ft 424 kts 295°
2026-04-24 13:02 -20.55218 161.63309 30078 ft 425 kts 295°
2026-04-24 13:03 -20.53255 161.57410 30070 ft 423 kts 295°
2026-04-24 13:03 -20.51291 161.51506 30068 ft 424 kts 296°
2026-04-24 13:04 -20.49330 161.45633 30062 ft 424 kts 296°
2026-04-24 13:04 -20.47349 161.39699 30069 ft 423 kts 295°
2026-04-24 13:05 -20.45384 161.33812 30070 ft 424 kts 296°
2026-04-24 13:05 -20.43416 161.27940 30066 ft 421 kts 296°
2026-04-24 13:06 -20.41451 161.22072 30067 ft 421 kts 296°
2026-04-24 13:06 -20.39480 161.16216 30067 ft 420 kts 296°
2026-04-24 13:07 -20.37522 161.10368 30069 ft 418 kts 296°
2026-04-24 13:07 -20.35556 161.04517 30065 ft 419 kts 296°
2026-04-24 13:08 -20.33594 160.98703 30060 ft 420 kts 296°
2026-04-24 13:08 -20.31626 160.92877 30054 ft 417 kts 296°
2026-04-24 13:09 -20.28689 160.84177 30053 ft 417 kts 296°
2026-04-24 13:09 -20.26724 160.78363 30058 ft 419 kts 296°
2026-04-24 13:10 -20.24746 160.72534 30053 ft 419 kts 296°
2026-04-24 13:10 -20.22770 160.66715 30055 ft 418 kts 296°
2026-04-24 13:11 -20.20810 160.60930 30056 ft 418 kts 296°
2026-04-24 13:11 -20.18841 160.55122 30047 ft 417 kts 296°
2026-04-24 13:12 -20.16865 160.49327 30050 ft 416 kts 296°
2026-04-24 13:12 -20.14896 160.43552 30045 ft 416 kts 296°
2026-04-24 13:13 -20.12919 160.37749 30043 ft 415 kts 296°
2026-04-24 13:13 -20.10950 160.31985 30046 ft 415 kts 296°
2026-04-24 13:14 -20.08998 160.26270 30049 ft 414 kts 297°
2026-04-24 13:14 -20.07025 160.20515 30045 ft 415 kts 296°
2026-04-24 13:15 -20.05050 160.14751 30041 ft 415 kts 297°
2026-04-24 13:15 -20.03071 160.08975 30044 ft 413 kts 296°
2026-04-24 13:16 -20.01106 160.03256 30044 ft 415 kts 296°
2026-04-24 13:16 -19.99092 159.97527 30048 ft 415 kts 298°
2026-04-24 13:17 -19.96930 159.91847 30044 ft 415 kts 298°
2026-04-24 13:17 -19.94773 159.86203 30049 ft 414 kts 298°
2026-04-24 13:18 -19.92611 159.80519 30042 ft 413 kts 298°
2026-04-24 13:18 -19.90471 159.74884 30051 ft 413 kts 298°
2026-04-24 13:19 -19.88329 159.69257 30040 ft 412 kts 297°
2026-04-24 13:19 -19.86178 159.63594 30050 ft 412 kts 297°
2026-04-24 13:20 -19.84036 159.57964 30050 ft 411 kts 297°
2026-04-24 13:20 -19.81902 159.52356 30047 ft 413 kts 297°
2026-04-24 13:21 -19.79748 159.46703 30043 ft 413 kts 297°
2026-04-24 13:21 -19.77589 159.41049 30051 ft 413 kts 297°
2026-04-24 13:22 -19.75442 159.35435 30055 ft 413 kts 297°
2026-04-24 13:22 -19.73292 159.29808 30053 ft 411 kts 297°
2026-04-24 13:23 -19.71139 159.24181 30052 ft 413 kts 297°
2026-04-24 13:23 -19.68976 159.18544 30055 ft 412 kts 297°
2026-04-24 13:24 -19.66813 159.12904 30050 ft 412 kts 297°
2026-04-24 13:24 -19.64661 159.07314 30058 ft 412 kts 297°
2026-04-24 13:25 -19.62497 159.01689 30056 ft 411 kts 297°
2026-04-24 13:25 -19.60351 158.96114 30057 ft 410 kts 297°
2026-04-24 13:26 -19.58187 158.90500 30050 ft 410 kts 297°
2026-04-24 13:26 -19.56031 158.84915 30046 ft 410 kts 296°
2026-04-24 13:27 -19.53885 158.79353 30055 ft 410 kts 297°
2026-04-24 13:27 -19.51721 158.73758 30053 ft 411 kts 297°
2026-04-24 13:28 -19.49549 158.68158 30056 ft 412 kts 296°
2026-04-24 13:28 -19.47382 158.62555 30050 ft 412 kts 297°
2026-04-24 13:29 -19.45200 158.56935 30048 ft 412 kts 296°
2026-04-24 13:29 -19.43032 158.51358 30050 ft 410 kts 296°
2026-04-24 13:30 -19.40861 158.45769 30050 ft 412 kts 296°
2026-04-24 13:30 -19.38680 158.40173 30049 ft 411 kts 296°
2026-04-24 13:31 -19.36496 158.34561 30049 ft 412 kts 296°
2026-04-24 13:31 -19.34323 158.28983 30045 ft 411 kts 296°
2026-04-24 13:32 -19.32149 158.23418 30051 ft 411 kts 296°
2026-04-24 13:32 -19.29960 158.17812 30048 ft 411 kts 296°
2026-04-24 13:33 -19.27786 158.12251 30050 ft 411 kts 296°
2026-04-24 13:33 -19.25609 158.06700 30045 ft 411 kts 296°
2026-04-24 13:34 -19.23420 158.01108 30045 ft 411 kts 296°
2026-04-24 13:34 -19.21245 157.95569 30054 ft 411 kts 296°
2026-04-24 13:35 -19.19054 157.89990 30056 ft 411 kts 296°
2026-04-24 13:35 -19.16863 157.84422 30044 ft 410 kts 296°
2026-04-24 13:36 -19.14676 157.78868 30048 ft 412 kts 295°
2026-04-24 13:36 -19.12472 157.73271 30044 ft 411 kts 295°
2026-04-24 13:37 -19.10281 157.67717 30044 ft 412 kts 295°
2026-04-24 13:37 -19.08077 157.62137 30044 ft 412 kts 295°
2026-04-24 13:38 -19.05871 157.56546 30048 ft 413 kts 295°
2026-04-24 13:38 -19.03666 157.50972 30053 ft 412 kts 295°
2026-04-24 13:39 -19.01444 157.45357 30046 ft 413 kts 295°
2026-04-24 13:39 -18.99229 157.39798 30046 ft 413 kts 295°
2026-04-24 13:40 -18.96964 157.34219 30047 ft 412 kts 295°
2026-04-24 13:40 -18.94702 157.28664 30049 ft 412 kts 296°
2026-04-24 13:41 -18.92445 157.23111 30050 ft 412 kts 295°
2026-04-24 13:41 -18.90192 157.17578 30049 ft 413 kts 295°
2026-04-24 13:42 -18.87918 157.11987 30047 ft 413 kts 295°
2026-04-24 13:42 -18.85656 157.06438 30052 ft 414 kts 295°
2026-04-24 13:43 -18.83377 157.00845 30048 ft 414 kts 295°
2026-04-24 13:43 -18.81114 156.95299 30054 ft 415 kts 295°
2026-04-24 13:44 -18.78813 156.89679 30051 ft 416 kts 295°
2026-04-24 13:44 -18.76533 156.84096 30053 ft 416 kts 295°
2026-04-24 13:45 -18.74238 156.78493 30048 ft 416 kts 295°
2026-04-24 13:45 -18.71944 156.72896 30046 ft 416 kts 295°
2026-04-24 13:46 -18.69651 156.67314 30052 ft 417 kts 294°
2026-04-24 13:46 -18.67353 156.61719 30040 ft 416 kts 294°
2026-04-24 13:47 -18.65053 156.56122 30042 ft 418 kts 294°
2026-04-24 13:47 -18.62744 156.50508 30049 ft 417 kts 294°
2026-04-24 13:48 -18.60429 156.44890 30048 ft 418 kts 294°
2026-04-24 13:48 -18.58133 156.39311 30047 ft 418 kts 294°
2026-04-24 13:49 -18.55806 156.33678 30044 ft 418 kts 294°
2026-04-24 13:49 -18.53499 156.28098 30042 ft 419 kts 293°
2026-04-24 13:50 -18.51169 156.22459 30031 ft 418 kts 293°
2026-04-24 13:50 -18.48860 156.16873 30042 ft 418 kts 293°
2026-04-24 13:51 -18.46534 156.11258 30042 ft 418 kts 293°
2026-04-24 13:51 -18.44218 156.05672 30026 ft 419 kts 293°
2026-04-24 13:52 -18.41879 156.00043 30045 ft 418 kts 293°
2026-04-24 13:52 -18.39549 155.94432 30039 ft 419 kts 293°
2026-04-24 13:53 -18.37232 155.88855 30024 ft 419 kts 292°
2026-04-24 13:53 -18.34888 155.83228 30036 ft 418 kts 293°
2026-04-24 13:54 -18.32557 155.77634 30022 ft 418 kts 293°
2026-04-24 13:54 -18.30215 155.72026 30021 ft 418 kts 292°
2026-04-24 13:55 -18.27882 155.66438 30031 ft 418 kts 292°
2026-04-24 13:55 -18.25556 155.60864 30046 ft 418 kts 292°
2026-04-24 13:56 -18.23223 155.55284 30038 ft 417 kts 292°
2026-04-24 13:56 -18.20879 155.49687 30031 ft 416 kts 292°
2026-04-24 13:57 -18.18555 155.44150 30039 ft 416 kts 292°
2026-04-24 13:57 -18.16225 155.38596 30049 ft 416 kts 292°
2026-04-24 13:58 -18.13883 155.33031 30042 ft 417 kts 292°
2026-04-24 13:58 -18.11540 155.27441 30054 ft 417 kts 292°
2026-04-24 13:59 -18.09197 155.21875 30041 ft 417 kts 291°
2026-04-24 13:59 -18.06862 155.16325 30040 ft 417 kts 292°
2026-04-24 14:00 -18.04526 155.10777 30042 ft 417 kts 291°
2026-04-24 14:00 -18.02179 155.05206 30045 ft 418 kts 291°
2026-04-24 14:01 -17.99843 154.99622 30049 ft 417 kts 290°
2026-04-24 14:01 -17.97682 154.94005 30054 ft 418 kts 289°
2026-04-24 14:02 -17.95513 154.88364 30057 ft 417 kts 289°
2026-04-24 14:02 -17.93342 154.82724 30057 ft 417 kts 289°
2026-04-24 14:03 -17.91163 154.77069 30057 ft 418 kts 289°
2026-04-24 14:03 -17.88987 154.71417 30056 ft 418 kts 289°
2026-04-24 14:04 -17.86816 154.65793 30055 ft 419 kts 289°
2026-04-24 14:04 -17.84633 154.60133 30057 ft 417 kts 289°
2026-04-24 14:05 -17.82467 154.54523 30050 ft 418 kts 288°
2026-04-24 14:05 -17.80275 154.48850 30051 ft 418 kts 289°
2026-04-24 14:06 -17.78095 154.43224 30045 ft 419 kts 288°
2026-04-24 14:06 -17.75896 154.37547 30051 ft 419 kts 288°
2026-04-24 14:07 -17.73712 154.31924 30050 ft 419 kts 289°
2026-04-24 14:07 -17.71520 154.26277 30054 ft 419 kts 288°
2026-04-24 14:08 -17.69320 154.20610 30050 ft 419 kts 288°
2026-04-24 14:08 -17.67129 154.14972 30043 ft 420 kts 288°
2026-04-24 14:09 -17.64929 154.09323 30045 ft 419 kts 288°
2026-04-24 14:09 -17.62721 154.03665 30044 ft 420 kts 288°
2026-04-24 14:10 -17.60513 153.97998 30045 ft 421 kts 288°
2026-04-24 14:10 -17.58307 153.92351 30049 ft 421 kts 288°
2026-04-24 14:11 -17.56094 153.86684 30047 ft 421 kts 288°
2026-04-24 14:12 -17.52767 153.78166 30046 ft 421 kts 288°
2026-04-24 14:12 -17.50553 153.72514 30049 ft 421 kts 288°
2026-04-24 14:13 -17.48323 153.66841 30047 ft 422 kts 287°
2026-04-24 14:13 -17.46098 153.61174 30045 ft 421 kts 288°
2026-04-24 14:14 -17.43867 153.55493 30045 ft 422 kts 288°
2026-04-24 14:14 -17.40519 153.46983 30043 ft 422 kts 287°
2026-04-24 14:15 -17.38277 153.41286 30041 ft 422 kts 287°
2026-04-24 14:15 -17.36044 153.35619 30042 ft 422 kts 287°
2026-04-24 14:16 -17.33796 153.29925 30047 ft 423 kts 287°
2026-04-24 14:17 -17.30432 153.21408 30042 ft 425 kts 287°
2026-04-24 14:17 -17.27052 153.12869 30040 ft 423 kts 287°
2026-04-24 14:18 -17.24783 153.07140 30037 ft 426 kts 288°
2026-04-24 14:18 -17.22524 153.01448 30047 ft 425 kts 287°
2026-04-24 14:19 -17.20267 152.95760 30036 ft 425 kts 287°
2026-04-24 14:19 -17.18009 152.90074 30037 ft 425 kts 288°
2026-04-24 14:20 -17.15746 152.84387 30044 ft 425 kts 287°
2026-04-24 14:20 -17.13481 152.78699 30046 ft 425 kts 287°
2026-04-24 14:21 -17.11208 152.72994 30039 ft 425 kts 287°
2026-04-24 14:21 -17.08947 152.67320 30042 ft 425 kts 287°
2026-04-24 14:22 -17.06675 152.61623 30050 ft 427 kts 287°
2026-04-24 14:23 -17.03269 152.53095 30045 ft 426 kts 287°
2026-04-24 14:23 -17.00993 152.47398 30048 ft 424 kts 287°
2026-04-24 14:24 -16.98710 152.41711 30052 ft 425 kts 287°
2026-04-24 14:24 -16.96434 152.36028 30049 ft 426 kts 287°
2026-04-24 14:25 -16.94140 152.30316 30049 ft 428 kts 287°
2026-04-24 14:25 -16.91838 152.24582 30052 ft 430 kts 287°
2026-04-24 14:26 -16.89532 152.18843 30051 ft 428 kts 287°
2026-04-24 14:26 -16.87223 152.13092 30052 ft 430 kts 288°
2026-04-24 14:27 -16.84911 152.07364 30054 ft 431 kts 287°
2026-04-24 14:27 -16.82586 152.01593 30055 ft 431 kts 287°
2026-04-24 14:28 -16.80263 151.95833 30052 ft 430 kts 287°
2026-04-24 14:28 -16.77947 151.90103 30051 ft 431 kts 287°
2026-04-24 14:29 -16.75608 151.84314 30050 ft 432 kts 287°
2026-04-24 14:29 -16.73274 151.78542 30052 ft 433 kts 288°
2026-04-24 14:30 -16.70930 151.72763 30051 ft 433 kts 287°
2026-04-24 14:30 -16.68592 151.66988 30049 ft 436 kts 287°
2026-04-24 14:31 -16.66228 151.61169 30051 ft 435 kts 287°
2026-04-24 14:31 -16.63876 151.55374 30050 ft 434 kts 287°
2026-04-24 14:32 -16.61517 151.49576 30047 ft 436 kts 287°
2026-04-24 14:32 -16.59151 151.43753 30049 ft 438 kts 287°
2026-04-24 14:33 -16.56774 151.37923 30052 ft 437 kts 287°
2026-04-24 14:33 -16.54402 151.32100 30051 ft 438 kts 288°
2026-04-24 14:34 -16.52013 151.26244 30049 ft 439 kts 288°
2026-04-24 14:34 -16.49635 151.20419 30048 ft 439 kts 288°
2026-04-24 14:35 -16.47246 151.14578 30047 ft 441 kts 287°
2026-04-24 14:35 -16.44846 151.08708 30045 ft 441 kts 287°
2026-04-24 14:36 -16.42457 151.02875 30049 ft 440 kts 288°
2026-04-24 14:36 -16.40057 150.97028 30045 ft 441 kts 287°
2026-04-24 14:37 -16.37654 150.91162 30043 ft 442 kts 288°
2026-04-24 14:37 -16.35232 150.85266 30045 ft 441 kts 287°
2026-04-24 14:38 -16.32830 150.79423 30042 ft 442 kts 288°
2026-04-24 14:38 -16.30405 150.73529 30046 ft 443 kts 287°
2026-04-24 14:39 -16.27981 150.67639 30043 ft 443 kts 288°
2026-04-24 14:39 -16.25550 150.61737 30041 ft 445 kts 288°
2026-04-24 14:40 -16.23128 150.55868 30041 ft 445 kts 287°
2026-04-24 14:40 -16.20685 150.49945 30042 ft 445 kts 288°
2026-04-24 14:41 -16.18240 150.44034 30041 ft 445 kts 288°
2026-04-24 14:41 -16.15793 150.38119 30041 ft 446 kts 288°
2026-04-24 14:42 -16.13349 150.32211 30039 ft 447 kts 288°
2026-04-24 14:42 -16.10887 150.26268 30038 ft 447 kts 288°
2026-04-24 14:43 -16.08422 150.20323 30038 ft 448 kts 288°
2026-04-24 14:43 -16.05971 150.14415 30038 ft 449 kts 288°
2026-04-24 14:44 -16.03491 150.08443 30040 ft 449 kts 288°
2026-04-24 14:44 -16.01014 150.02524 30038 ft 450 kts 289°
2026-04-24 14:45 -15.98113 149.96713 30038 ft 454 kts 294°
2026-04-24 14:45 -15.94926 149.91046 30039 ft 454 kts 294°
2026-04-24 14:46 -15.91750 149.85403 30037 ft 454 kts 294°
2026-04-24 14:46 -15.88567 149.79758 30044 ft 454 kts 294°
2026-04-24 14:47 -15.85379 149.74100 30041 ft 455 kts 294°
2026-04-24 14:47 -15.82186 149.68442 30044 ft 454 kts 294°
2026-04-24 14:48 -15.78988 149.62778 30042 ft 454 kts 294°
2026-04-24 14:48 -15.75798 149.57132 30037 ft 455 kts 294°
2026-04-24 14:49 -15.72615 149.51504 30032 ft 454 kts 294°
2026-04-24 14:49 -15.69399 149.45822 30033 ft 455 kts 294°
2026-04-24 14:50 -15.66210 149.40189 30036 ft 455 kts 294°
2026-04-24 14:50 -15.63009 149.34543 30035 ft 456 kts 294°
2026-04-24 14:51 -15.59803 149.28888 30035 ft 455 kts 294°
2026-04-24 14:51 -15.56583 149.23219 30032 ft 456 kts 294°
2026-04-24 14:52 -15.53363 149.17552 30032 ft 456 kts 294°
2026-04-24 14:52 -15.50147 149.11894 30030 ft 455 kts 295°
2026-04-24 14:53 -15.46929 149.06241 30036 ft 456 kts 294°
2026-04-24 14:53 -15.43725 149.00612 30030 ft 454 kts 295°
2026-04-24 14:54 -15.40524 148.94994 30027 ft 455 kts 294°
2026-04-24 14:54 -15.37290 148.89323 30026 ft 455 kts 294°
2026-04-24 14:55 -15.34086 148.83707 30025 ft 455 kts 295°
2026-04-24 14:55 -15.30869 148.78075 30024 ft 456 kts 294°
2026-04-24 14:56 -15.27636 148.72417 30024 ft 455 kts 295°
2026-04-24 14:56 -15.24413 148.66785 30023 ft 457 kts 295°
2026-04-24 14:57 -15.21171 148.61116 30024 ft 457 kts 295°
2026-04-24 14:57 -15.17935 148.55466 30024 ft 457 kts 295°
2026-04-24 14:58 -15.14706 148.49835 30024 ft 458 kts 295°
2026-04-24 14:58 -15.11450 148.44156 30022 ft 458 kts 295°
2026-04-24 14:59 -15.08204 148.38500 30019 ft 457 kts 295°
2026-04-24 14:59 -15.04959 148.32854 30023 ft 457 kts 295°
2026-04-24 15:00 -15.01727 148.27229 30020 ft 456 kts 295°
2026-04-24 15:00 -14.98489 148.21597 30020 ft 457 kts 295°
2026-04-24 15:01 -14.95251 148.15968 30019 ft 457 kts 295°
2026-04-24 15:01 -14.91994 148.10309 30018 ft 458 kts 295°
2026-04-24 15:02 -14.88665 148.04697 30015 ft 461 kts 297°
2026-04-24 15:02 -14.85121 147.99142 30018 ft 462 kts 297°
2026-04-24 15:03 -14.81577 147.93597 30023 ft 462 kts 297°
2026-04-24 15:03 -14.78055 147.88084 30029 ft 461 kts 297°
2026-04-24 15:04 -14.74514 147.82542 30029 ft 462 kts 297°
2026-04-24 15:04 -14.70995 147.77037 30031 ft 462 kts 297°
2026-04-24 15:05 -14.67442 147.71483 30030 ft 464 kts 297°
2026-04-24 15:05 -14.63875 147.65910 30031 ft 464 kts 297°
2026-04-24 15:06 -14.60334 147.60382 30029 ft 464 kts 297°
2026-04-24 15:06 -14.56765 147.54813 30029 ft 465 kts 297°
2026-04-24 15:07 -14.53198 147.49249 30025 ft 466 kts 298°
2026-04-24 15:07 -14.49614 147.43666 30020 ft 467 kts 298°
2026-04-24 15:08 -14.46030 147.38088 30016 ft 467 kts 298°
2026-04-24 15:08 -14.42447 147.32513 30015 ft 468 kts 298°
2026-04-24 15:09 -14.38857 147.26932 30014 ft 468 kts 298°
2026-04-24 15:09 -14.35241 147.21315 30017 ft 469 kts 298°
2026-04-24 15:10 -14.31644 147.15727 30009 ft 470 kts 298°
2026-04-24 15:10 -14.28037 147.10129 30008 ft 470 kts 298°
2026-04-24 15:11 -14.24418 147.04518 30014 ft 470 kts 298°
2026-04-24 15:11 -14.20783 146.98889 30021 ft 471 kts 298°
2026-04-24 15:12 -14.17176 146.93306 30023 ft 471 kts 298°
2026-04-24 15:12 -14.11714 146.84854 30017 ft 472 kts 298°
2026-04-24 15:13 -14.08081 146.79240 30022 ft 472 kts 298°
2026-04-24 15:13 -14.04452 146.73634 30017 ft 472 kts 298°
2026-04-24 15:14 -14.00806 146.68005 30016 ft 472 kts 298°
2026-04-24 15:14 -13.97187 146.62419 30016 ft 472 kts 298°
2026-04-24 15:15 -13.93538 146.56795 30011 ft 473 kts 299°
2026-04-24 15:15 -13.89874 146.51149 30009 ft 474 kts 299°
2026-04-24 15:16 -13.86210 146.45509 29999 ft 474 kts 299°
2026-04-24 15:16 -13.82544 146.39870 29995 ft 474 kts 299°
2026-04-24 15:17 -13.78904 146.34274 29992 ft 474 kts 299°
2026-04-24 15:17 -13.75229 146.28628 29990 ft 474 kts 299°
2026-04-24 15:18 -13.71560 146.22995 29991 ft 474 kts 299°
2026-04-24 15:18 -13.67894 146.17371 29990 ft 474 kts 299°
2026-04-24 15:19 -13.64235 146.11758 29986 ft 474 kts 299°
2026-04-24 15:19 -13.60556 146.06119 29991 ft 474 kts 299°
2026-04-24 15:20 -13.56881 146.00488 29987 ft 474 kts 299°
2026-04-24 15:20 -13.53198 145.94852 29987 ft 475 kts 299°
2026-04-24 15:21 -13.49529 145.89241 29986 ft 475 kts 299°
2026-04-24 15:21 -13.45830 145.83591 29985 ft 476 kts 299°
2026-04-24 15:22 -13.42144 145.77960 29985 ft 476 kts 299°
2026-04-24 15:23 -13.36614 145.69519 29986 ft 476 kts 299°
2026-04-24 15:23 -13.31077 145.61076 29984 ft 476 kts 300°
2026-04-24 15:25 -13.21816 145.46974 29983 ft 476 kts 300°
2026-04-24 15:26 -13.12562 145.32906 29980 ft 477 kts 300°
2026-04-24 15:27 -13.01429 145.16007 29978 ft 477 kts 300°
2026-04-24 15:29 -12.90254 144.99080 29978 ft 478 kts 300°
2026-04-24 15:31 -12.77220 144.79370 29986 ft 478 kts 300°
2026-04-24 15:33 -12.62264 144.56812 29991 ft 480 kts 300°
2026-04-24 15:34 -12.52889 144.42699 29987 ft 481 kts 300°
2026-04-24 15:35 -12.43469 144.28537 30569 ft 483 kts 301°
2026-04-24 15:35 -12.41573 144.25691 30946 ft 481 kts 301°
2026-04-24 15:36 -12.39706 144.22888 31291 ft 479 kts 301°
2026-04-24 15:36 -12.35963 144.17270 31890 ft 477 kts 301°
2026-04-24 15:36 -12.34098 144.14471 31974 ft 478 kts 301°
2026-04-24 15:37 -12.30356 144.08861 31972 ft 478 kts 301°
2026-04-24 15:37 -12.26623 144.03267 31968 ft 479 kts 301°
2026-04-24 15:38 -12.22857 143.97624 31970 ft 478 kts 301°
2026-04-24 15:38 -12.19128 143.92038 31968 ft 478 kts 301°
2026-04-24 15:39 -12.15361 143.86395 31968 ft 479 kts 301°
2026-04-24 15:39 -12.11610 143.80785 31970 ft 479 kts 301°
2026-04-24 15:40 -12.07865 143.75171 31966 ft 479 kts 301°
2026-04-24 15:40 -12.04141 143.69547 31964 ft 479 kts 301°
2026-04-24 15:41 -12.00412 143.63915 31965 ft 479 kts 301°
2026-04-24 15:41 -11.96660 143.58249 31962 ft 480 kts 301°
2026-04-24 15:42 -11.92928 143.52617 31965 ft 480 kts 301°
2026-04-24 15:42 -11.89197 143.46986 31965 ft 481 kts 301°
2026-04-24 15:43 -11.85442 143.41325 31964 ft 481 kts 301°
2026-04-24 15:43 -11.81687 143.35667 31965 ft 481 kts 301°
2026-04-24 15:44 -11.77937 143.30019 31966 ft 482 kts 301°
2026-04-24 15:44 -11.74182 143.24368 31965 ft 482 kts 301°
2026-04-24 15:45 -11.70412 143.18698 31969 ft 483 kts 301°
2026-04-24 15:45 -11.66641 143.13031 31972 ft 483 kts 302°
2026-04-24 15:46 -11.62875 143.07370 31969 ft 484 kts 302°
2026-04-24 15:46 -11.59088 143.01683 31968 ft 484 kts 302°
2026-04-24 15:47 -11.55303 142.96007 31966 ft 484 kts 302°
2026-04-24 15:47 -11.51537 142.90356 31970 ft 484 kts 302°
2026-04-24 15:48 -11.47746 142.84671 31970 ft 485 kts 302°
2026-04-24 15:48 -11.43960 142.78999 31971 ft 485 kts 302°
2026-04-24 15:49 -11.40159 142.73311 31975 ft 486 kts 302°
2026-04-24 15:49 -11.36354 142.67616 31973 ft 486 kts 302°
2026-04-24 15:50 -11.32558 142.61937 31971 ft 486 kts 302°
2026-04-24 15:50 -11.28748 142.56242 31976 ft 486 kts 302°
2026-04-24 15:51 -11.24961 142.50584 31976 ft 486 kts 302°
2026-04-24 15:51 -11.21135 142.44873 31982 ft 487 kts 302°
2026-04-24 15:52 -11.17319 142.39177 31973 ft 487 kts 302°
2026-04-24 15:52 -11.13521 142.33510 31980 ft 488 kts 302°
2026-04-24 15:53 -11.09683 142.27789 31980 ft 488 kts 302°
2026-04-24 15:53 -11.05862 142.22095 31974 ft 488 kts 302°
2026-04-24 15:54 -11.02028 142.16385 31974 ft 488 kts 302°
2026-04-24 15:54 -10.98207 142.10695 31974 ft 488 kts 302°
2026-04-24 15:55 -10.94384 142.05009 31975 ft 488 kts 302°
2026-04-24 15:55 -10.90555 141.99316 31973 ft 489 kts 302°
2026-04-24 15:56 -10.86709 141.93604 31973 ft 489 kts 302°
2026-04-24 15:56 -10.82852 141.87872 31971 ft 489 kts 302°
2026-04-24 15:57 -10.79012 141.82175 31973 ft 488 kts 302°
2026-04-24 15:57 -10.75193 141.76504 31967 ft 488 kts 303°
2026-04-24 15:58 -10.71345 141.70796 31958 ft 488 kts 303°
2026-04-24 15:58 -10.67501 141.65102 31955 ft 489 kts 303°
2026-04-24 15:59 -10.63652 141.59401 31950 ft 489 kts 303°
2026-04-24 15:59 -10.59833 141.53746 31949 ft 489 kts 303°
2026-04-24 16:00 -10.55984 141.48051 31949 ft 488 kts 303°
2026-04-24 16:00 -10.52160 141.42394 31947 ft 487 kts 303°
2026-04-24 16:01 -10.48331 141.36732 31946 ft 487 kts 303°
2026-04-24 16:01 -10.44488 141.31053 31946 ft 488 kts 303°
2026-04-24 16:02 -10.40651 141.25385 31943 ft 490 kts 304°
2026-04-24 16:02 -10.36780 141.19670 31944 ft 490 kts 304°
2026-04-24 16:03 -10.32941 141.14011 31944 ft 485 kts 304°
2026-04-24 16:03 -10.29122 141.08375 31943 ft 482 kts 304°
2026-04-24 16:04 -10.25335 141.02794 31942 ft 482 kts 304°
2026-04-24 16:04 -10.21519 140.97174 31941 ft 483 kts 304°
2026-04-24 16:05 -10.15771 140.88718 31944 ft 486 kts 304°
2026-04-24 16:06 -10.10040 140.80272 31943 ft 484 kts 304°
2026-04-24 16:07 -10.04310 140.71849 31938 ft 483 kts 304°
2026-04-24 16:07 -10.02398 140.69041 32046 ft 486 kts 305°
2026-04-24 16:07 -9.98597 140.63461 32776 ft 480 kts 304°
2026-04-24 16:08 -9.96704 140.60687 33176 ft 478 kts 304°
2026-04-24 16:08 -9.92941 140.55160 33812 ft 476 kts 304°
2026-04-24 16:09 -9.89159 140.49587 33946 ft 480 kts 304°
2026-04-24 16:09 -9.87245 140.46777 33945 ft 483 kts 305°
2026-04-24 16:09 -9.83406 140.41150 33943 ft 483 kts 305°
2026-04-24 16:11 -9.73515 140.27609 33950 ft 478 kts 307°
2026-04-24 16:11 -9.69555 140.22209 33945 ft 479 kts 307°
2026-04-24 16:12 -9.63595 140.14070 33942 ft 480 kts 308°
2026-04-24 16:13 -9.57623 140.05911 33941 ft 481 kts 308°
2026-04-24 16:14 -9.49657 139.95038 33939 ft 481 kts 307°
2026-04-24 16:14 -9.43683 139.86890 33933 ft 481 kts 308°
2026-04-24 16:15 -9.37688 139.78717 33927 ft 481 kts 307°
2026-04-24 16:16 -9.31704 139.70564 33926 ft 482 kts 308°
2026-04-24 16:17 -9.21725 139.56984 33922 ft 482 kts 308°
2026-04-24 16:18 -9.13738 139.46124 33922 ft 482 kts 308°
2026-04-24 16:19 -9.07731 139.37961 33923 ft 483 kts 308°
2026-04-24 16:20 -9.01702 139.29776 33921 ft 483 kts 308°
2026-04-24 16:20 -8.95689 139.21619 33922 ft 483 kts 308°
2026-04-24 16:21 -8.89668 139.13449 33925 ft 483 kts 308°
2026-04-24 16:22 -8.85671 139.08032 33920 ft 483 kts 308°
2026-04-24 16:22 -8.79633 138.99854 33934 ft 483 kts 308°
2026-04-24 16:23 -8.75620 138.94421 33937 ft 483 kts 308°
2026-04-24 16:24 -8.69590 138.86258 33938 ft 483 kts 308°
2026-04-24 16:24 -8.65576 138.80830 33938 ft 483 kts 308°
2026-04-24 16:25 -8.61579 138.75426 33938 ft 483 kts 308°
2026-04-24 16:25 -8.57556 138.69989 33938 ft 483 kts 308°
2026-04-24 16:26 -8.51526 138.61842 33939 ft 483 kts 308°
2026-04-24 16:27 -8.45491 138.53694 33938 ft 483 kts 308°
2026-04-24 16:27 -8.41459 138.48256 33938 ft 483 kts 308°
2026-04-24 16:28 -8.37442 138.42836 33938 ft 483 kts 308°
2026-04-24 16:28 -8.31389 138.34672 33936 ft 484 kts 308°
2026-04-24 16:29 -8.27374 138.29263 33932 ft 484 kts 308°
2026-04-24 16:30 -8.19310 138.18402 33925 ft 483 kts 309°
2026-04-24 16:30 -8.15277 138.12973 33924 ft 484 kts 309°
2026-04-24 16:31 -8.11240 138.07542 33922 ft 485 kts 308°
2026-04-24 16:31 -8.07192 138.02098 33921 ft 485 kts 308°
2026-04-24 16:32 -8.03171 137.96690 33921 ft 485 kts 309°
2026-04-24 16:32 -7.99121 137.91244 33920 ft 484 kts 309°
2026-04-24 16:33 -7.95080 137.85817 33920 ft 484 kts 309°
2026-04-24 16:33 -7.91020 137.80365 33920 ft 485 kts 309°
2026-04-24 16:34 -7.86989 137.74954 33918 ft 486 kts 309°
2026-04-24 16:34 -7.82917 137.69488 33916 ft 486 kts 309°
2026-04-24 16:35 -7.78867 137.64052 33920 ft 486 kts 309°
2026-04-24 16:35 -7.74825 137.58633 33917 ft 486 kts 309°
2026-04-24 16:36 -7.70765 137.53189 33918 ft 485 kts 309°
2026-04-24 16:36 -7.66716 137.47765 33916 ft 486 kts 309°
2026-04-24 16:37 -7.62649 137.42317 33917 ft 486 kts 309°
2026-04-24 16:37 -7.58581 137.36868 33915 ft 487 kts 309°
2026-04-24 16:38 -7.54516 137.31427 33911 ft 486 kts 309°
2026-04-24 16:38 -7.50455 137.25990 33911 ft 487 kts 309°
2026-04-24 16:39 -7.46381 137.20538 33911 ft 487 kts 309°
2026-04-24 16:39 -7.42306 137.15091 33906 ft 487 kts 309°
2026-04-24 16:40 -7.38232 137.09642 33912 ft 488 kts 309°
2026-04-24 16:40 -7.34149 137.04184 33902 ft 488 kts 309°
2026-04-24 16:41 -7.30047 136.98703 33902 ft 488 kts 309°
2026-04-24 16:41 -7.25968 136.93248 33902 ft 488 kts 309°
2026-04-24 16:42 -7.21907 136.87820 33902 ft 488 kts 309°
2026-04-24 16:42 -7.17858 136.82321 33901 ft 490 kts 307°
2026-04-24 16:43 -7.14279 136.76463 33899 ft 492 kts 300°
2026-04-24 16:43 -7.11373 136.70239 33900 ft 494 kts 294°
2026-04-24 16:44 -7.09002 136.63754 33901 ft 494 kts 291°
2026-04-24 16:44 -7.06697 136.57265 33900 ft 494 kts 291°
2026-04-24 16:45 -7.04369 136.50743 33899 ft 494 kts 291°
2026-04-24 16:45 -7.02051 136.44278 33902 ft 493 kts 291°
2026-04-24 16:46 -6.99719 136.37785 33897 ft 494 kts 291°
2026-04-24 16:46 -6.97390 136.31305 33901 ft 494 kts 291°
2026-04-24 16:47 -6.95060 136.24824 33913 ft 494 kts 291°
2026-04-24 16:47 -6.92720 136.18320 33917 ft 494 kts 291°
2026-04-24 16:48 -6.90391 136.11844 33919 ft 494 kts 291°
2026-04-24 16:48 -6.88056 136.05362 33920 ft 494 kts 291°
2026-04-24 16:49 -6.85717 135.98871 33917 ft 494 kts 291°
2026-04-24 16:49 -6.83371 135.92363 33916 ft 495 kts 291°
2026-04-24 16:50 -6.81037 135.85890 33915 ft 496 kts 291°
2026-04-24 16:50 -6.78685 135.79370 33914 ft 496 kts 291°
2026-04-24 16:51 -6.76328 135.72838 33910 ft 496 kts 291°
2026-04-24 16:51 -6.73989 135.66362 33910 ft 495 kts 291°
2026-04-24 16:52 -6.71629 135.59830 33903 ft 496 kts 291°
2026-04-24 16:52 -6.69278 135.53326 33902 ft 496 kts 291°
2026-04-24 16:53 -6.66924 135.46811 33899 ft 496 kts 291°
2026-04-24 16:53 -6.64569 135.40300 33895 ft 496 kts 291°
2026-04-24 16:54 -6.62222 135.33813 33893 ft 496 kts 291°
2026-04-24 16:54 -6.59872 135.27321 33895 ft 496 kts 291°
2026-04-24 16:55 -6.57517 135.20819 33894 ft 496 kts 291°
2026-04-24 16:55 -6.55151 135.14284 33898 ft 496 kts 291°
2026-04-24 16:56 -6.52796 135.07779 33896 ft 496 kts 291°
2026-04-24 16:56 -6.50433 135.01259 33897 ft 496 kts 291°
2026-04-24 16:57 -6.48059 134.94810 33899 ft 496 kts 292°
2026-04-24 16:57 -6.45647 134.88332 33900 ft 496 kts 291°
2026-04-24 16:58 -6.43235 134.81836 33900 ft 495 kts 291°
2026-04-24 16:58 -6.40836 134.75366 33900 ft 495 kts 291°
2026-04-24 16:59 -6.38431 134.68884 33901 ft 496 kts 291°
2026-04-24 17:00 -6.34822 134.59155 33898 ft 496 kts 291°
2026-04-24 17:00 -6.31221 134.49454 33901 ft 495 kts 291°
2026-04-24 17:01 -6.27614 134.39741 33900 ft 495 kts 291°
2026-04-24 17:02 -6.24007 134.30035 33900 ft 495 kts 291°
2026-04-24 17:02 -6.21595 134.23550 33900 ft 495 kts 291°
2026-04-24 17:03 -6.17980 134.13832 33900 ft 496 kts 291°
2026-04-24 17:04 -6.15570 134.07361 33899 ft 496 kts 291°
2026-04-24 17:04 -6.11959 133.97662 33900 ft 496 kts 291°
2026-04-24 17:05 -6.09544 133.91182 33896 ft 496 kts 291°
2026-04-24 17:06 -6.05924 133.81473 33896 ft 496 kts 291°
2026-04-24 17:06 -6.02287 133.71725 33889 ft 496 kts 291°
2026-04-24 17:07 -5.99889 133.65297 33883 ft 495 kts 291°
2026-04-24 17:08 -5.95060 133.52365 33885 ft 495 kts 291°
2026-04-24 17:08 -5.92636 133.45880 33887 ft 495 kts 291°
2026-04-24 17:09 -5.87813 133.32982 33887 ft 495 kts 291°
2026-04-24 17:10 -5.82979 133.20058 33897 ft 494 kts 291°
2026-04-24 17:12 -5.73310 132.94240 33900 ft 495 kts 291°
2026-04-24 18:54 1.06159 120.72946 33934 ft 492 kts 312°
2026-04-24 18:55 1.12837 120.65150 33914 ft 491 kts 312°
2026-04-24 18:56 1.17271 120.59967 33914 ft 491 kts 312°
2026-04-24 18:56 1.21644 120.54750 33909 ft 492 kts 309°
2026-04-24 18:57 1.25561 120.49114 33897 ft 494 kts 303°
2026-04-24 18:57 1.29165 120.43300 33885 ft 494 kts 303°
2026-04-24 18:58 1.32780 120.37437 33882 ft 494 kts 303°
2026-04-24 18:58 1.36381 120.31613 33877 ft 493 kts 303°
2026-04-24 18:59 1.39992 120.25778 33873 ft 493 kts 303°
2026-04-24 18:59 1.43583 120.19976 33873 ft 493 kts 303°
2026-04-24 19:00 1.47178 120.14168 33869 ft 493 kts 303°
2026-04-24 19:00 1.50787 120.08335 33863 ft 494 kts 303°
2026-04-24 19:01 1.54398 120.02507 33857 ft 494 kts 303°
2026-04-24 19:01 1.58008 119.96674 33856 ft 493 kts 303°
2026-04-24 19:02 1.61017 119.91812 33856 ft 493 kts 303°
2026-04-24 19:02 1.65162 119.85114 33858 ft 493 kts 303°
2026-04-24 19:03 1.68780 119.79266 33863 ft 493 kts 303°
2026-04-24 19:03 1.72371 119.73460 33868 ft 494 kts 303°
2026-04-24 19:04 1.75991 119.67612 33871 ft 493 kts 303°
2026-04-24 19:04 1.79594 119.61790 33871 ft 494 kts 303°
2026-04-24 19:05 1.83203 119.55956 33873 ft 493 kts 303°
2026-04-24 19:05 1.86788 119.50159 33873 ft 493 kts 303°
2026-04-24 19:06 1.90391 119.44332 33874 ft 493 kts 303°
2026-04-24 19:06 1.94005 119.38490 33876 ft 492 kts 303°
2026-04-24 19:07 1.97609 119.32658 33874 ft 493 kts 303°
2026-04-24 19:07 2.01201 119.26851 33875 ft 494 kts 303°
2026-04-24 19:08 2.04810 119.21014 33875 ft 493 kts 303°
2026-04-24 19:08 2.08410 119.15191 33875 ft 493 kts 303°
2026-04-24 19:09 2.11999 119.09383 33875 ft 492 kts 303°
2026-04-24 19:09 2.15595 119.03563 33875 ft 492 kts 303°
2026-04-24 19:10 2.19208 118.97716 33876 ft 492 kts 303°
2026-04-24 19:10 2.22799 118.91905 33875 ft 493 kts 303°
2026-04-24 19:11 2.26384 118.86105 33874 ft 492 kts 303°
2026-04-24 19:11 2.29985 118.80276 33875 ft 493 kts 302°
2026-04-24 19:12 2.33579 118.74458 33875 ft 492 kts 302°
2026-04-24 19:12 2.37180 118.68624 33875 ft 493 kts 303°
2026-04-24 19:13 2.40182 118.63763 33874 ft 493 kts 303°
2026-04-24 19:13 2.44377 118.56969 33875 ft 493 kts 303°
2026-04-24 19:14 2.47960 118.51166 33878 ft 493 kts 302°
2026-04-24 19:14 2.51569 118.45321 33879 ft 492 kts 302°
2026-04-24 19:15 2.55165 118.39494 33885 ft 493 kts 302°
2026-04-24 19:15 2.58759 118.33669 33891 ft 493 kts 302°
2026-04-24 19:16 2.64132 118.24962 33893 ft 493 kts 302°
2026-04-24 19:16 2.67742 118.19111 33896 ft 492 kts 302°
2026-04-24 19:17 2.71331 118.13292 33895 ft 492 kts 302°
2026-04-24 19:17 2.74922 118.07469 33896 ft 493 kts 302°
2026-04-24 19:18 2.78505 118.01658 33894 ft 492 kts 302°
2026-04-24 19:18 2.82101 117.95825 33891 ft 492 kts 302°
2026-04-24 19:19 2.85690 117.90004 33884 ft 492 kts 302°
2026-04-24 19:19 2.89273 117.84191 33883 ft 492 kts 302°
2026-04-24 19:20 2.92871 117.78350 33885 ft 493 kts 302°
2026-04-24 19:20 2.96469 117.72510 33888 ft 493 kts 302°
2026-04-24 19:21 3.00070 117.66663 33888 ft 493 kts 302°
2026-04-24 19:21 3.03646 117.60857 33892 ft 493 kts 302°
2026-04-24 19:22 3.07243 117.55013 33894 ft 493 kts 302°
2026-04-24 19:22 3.10833 117.49178 33894 ft 493 kts 302°
2026-04-24 19:23 3.14434 117.43318 34014 ft 497 kts 302°
2026-04-24 19:23 3.16244 117.40375 34377 ft 496 kts 302°
2026-04-24 19:23 3.18059 117.37425 34829 ft 494 kts 302°
2026-04-24 19:24 3.19824 117.34463 35246 ft 492 kts 300°
2026-04-24 19:24 3.21516 117.31514 35586 ft 491 kts 300°
2026-04-24 19:24 3.23195 117.28555 35861 ft 491 kts 300°
2026-04-24 19:24 3.24874 117.25593 35906 ft 492 kts 300°
2026-04-24 19:25 3.28259 117.19639 35913 ft 492 kts 300°
2026-04-24 19:25 3.31644 117.13699 35915 ft 491 kts 300°
2026-04-24 19:26 3.35014 117.07793 35920 ft 491 kts 300°
2026-04-24 19:26 3.38403 117.01852 35924 ft 491 kts 300°
2026-04-24 19:27 3.41792 116.95914 35926 ft 491 kts 300°
2026-04-24 19:27 3.45176 116.89981 35922 ft 491 kts 300°
2026-04-24 19:28 3.48542 116.84081 35925 ft 490 kts 300°
2026-04-24 19:28 3.51928 116.78143 35924 ft 491 kts 300°
2026-04-24 19:29 3.56975 116.69289 35934 ft 490 kts 300°
2026-04-24 19:30 3.60352 116.63362 35939 ft 490 kts 300°
2026-04-24 19:30 3.63723 116.57446 35954 ft 489 kts 300°
2026-04-24 19:31 3.67105 116.51510 35971 ft 489 kts 300°
2026-04-24 19:31 3.70471 116.45601 35985 ft 489 kts 300°
2026-04-24 19:32 3.73832 116.39700 35994 ft 489 kts 300°
2026-04-24 19:32 3.77212 116.33763 35997 ft 489 kts 300°
2026-04-24 19:33 3.80571 116.27862 36008 ft 488 kts 300°
2026-04-24 19:33 3.83921 116.21973 36029 ft 488 kts 300°
2026-04-24 19:34 3.87280 116.16070 36040 ft 488 kts 300°
2026-04-24 19:34 3.90628 116.10183 36042 ft 488 kts 300°
2026-04-24 19:35 3.93995 116.04262 36053 ft 488 kts 300°
2026-04-24 19:35 3.97333 115.98388 36078 ft 489 kts 300°
2026-04-24 19:36 4.00704 115.92449 36092 ft 488 kts 300°
2026-04-24 19:36 4.04028 115.86590 36086 ft 487 kts 300°
2026-04-24 19:37 4.07480 115.80738 36077 ft 487 kts 304°
2026-04-24 19:37 4.11459 115.75292 36064 ft 486 kts 310°
2026-04-24 19:38 4.15897 115.70109 36058 ft 485 kts 311°
2026-04-24 19:38 4.20298 115.65017 36062 ft 485 kts 311°
2026-04-24 19:39 4.24699 115.59906 36106 ft 485 kts 311°
2026-04-24 19:39 4.29122 115.54756 36138 ft 485 kts 311°
2026-04-24 19:40 4.33524 115.49654 36142 ft 484 kts 312°
2026-04-24 19:40 4.37985 115.44626 36107 ft 484 kts 312°
2026-04-24 19:41 4.42474 115.39573 36037 ft 484 kts 312°
2026-04-24 19:41 4.46932 115.34538 35987 ft 484 kts 312°
2026-04-24 19:42 4.51389 115.29497 35944 ft 483 kts 312°
2026-04-24 19:42 4.55838 115.24460 35916 ft 483 kts 312°
2026-04-24 19:43 4.60268 115.19447 35901 ft 483 kts 312°
2026-04-24 19:43 4.64734 115.14387 35895 ft 482 kts 312°
2026-04-24 19:44 4.69164 115.09367 35891 ft 482 kts 312°
2026-04-24 19:44 4.73627 115.04307 35881 ft 481 kts 312°
2026-04-24 19:45 4.78058 114.99280 35871 ft 481 kts 312°
2026-04-24 19:45 4.82466 114.94275 35872 ft 482 kts 312°
2026-04-24 19:46 4.86879 114.89224 35861 ft 481 kts 310°
2026-04-24 19:46 4.90929 114.83889 35852 ft 481 kts 306°
2026-04-24 19:47 4.94872 114.78432 35850 ft 482 kts 306°
2026-04-24 19:47 4.98777 114.73019 35845 ft 482 kts 306°
2026-04-24 19:48 5.02719 114.67559 35846 ft 482 kts 306°
2026-04-24 19:48 5.08621 114.59392 35840 ft 483 kts 306°
2026-04-24 19:49 5.16495 114.48489 35837 ft 482 kts 306°
2026-04-24 19:50 5.24329 114.37636 35836 ft 482 kts 306°
2026-04-24 19:51 5.30233 114.29449 35836 ft 482 kts 306°
2026-04-24 19:52 5.36117 114.21283 35838 ft 482 kts 306°
2026-04-24 19:52 5.40040 114.15835 35838 ft 482 kts 306°
2026-04-24 19:53 5.43963 114.10399 35838 ft 481 kts 306°
2026-04-24 19:54 5.49853 114.02259 35838 ft 480 kts 306°
2026-04-24 19:54 5.53773 113.96828 35837 ft 481 kts 306°
2026-04-24 19:55 5.57044 113.92291 35837 ft 481 kts 306°
2026-04-24 19:55 5.61599 113.85973 35838 ft 481 kts 306°
2026-04-24 19:56 5.65509 113.80544 35844 ft 480 kts 306°
2026-04-24 19:56 5.69430 113.75098 35849 ft 480 kts 306°
2026-04-24 19:57 5.73322 113.69691 35852 ft 480 kts 306°
2026-04-24 19:57 5.77248 113.64236 35853 ft 480 kts 306°
2026-04-24 19:58 5.81143 113.58823 35855 ft 480 kts 306°
2026-04-24 19:58 5.85049 113.53391 35856 ft 480 kts 306°
2026-04-24 19:59 5.88960 113.47948 35855 ft 480 kts 306°
2026-04-24 19:59 5.92848 113.42533 35856 ft 479 kts 306°
2026-04-24 20:00 5.96733 113.37118 35856 ft 480 kts 306°
2026-04-24 20:00 6.00657 113.31673 35855 ft 480 kts 306°
2026-04-24 20:01 6.04582 113.26255 35853 ft 481 kts 306°
2026-04-24 20:01 6.08512 113.20818 35852 ft 480 kts 306°
2026-04-24 20:02 6.11771 113.16299 35852 ft 480 kts 306°
2026-04-24 20:02 6.16330 113.09976 35853 ft 480 kts 306°
2026-04-24 20:03 6.20240 113.04552 35854 ft 479 kts 306°
2026-04-24 20:03 6.24150 112.99124 35854 ft 479 kts 306°
2026-04-24 20:04 6.28046 112.93714 35849 ft 479 kts 306°
2026-04-24 20:04 6.31946 112.88295 35844 ft 479 kts 305°
2026-04-24 20:05 6.35854 112.82860 35843 ft 479 kts 306°
2026-04-24 20:05 6.39750 112.77443 35843 ft 477 kts 306°
2026-04-24 20:06 6.43631 112.72044 35841 ft 477 kts 306°
2026-04-24 20:06 6.47500 112.66657 35841 ft 476 kts 306°
2026-04-24 20:07 6.50737 112.62148 35844 ft 476 kts 306°
2026-04-24 20:07 6.55251 112.55867 35850 ft 475 kts 306°
2026-04-24 20:08 6.59087 112.50529 35851 ft 474 kts 305°
2026-04-24 20:08 6.62953 112.45134 35853 ft 474 kts 305°
2026-04-24 20:09 6.66809 112.39743 35855 ft 473 kts 306°
2026-04-24 20:09 6.70645 112.34376 35857 ft 474 kts 306°
2026-04-24 20:10 6.74488 112.29004 35857 ft 473 kts 306°
2026-04-24 20:10 6.78309 112.23661 35857 ft 472 kts 306°
2026-04-24 20:11 6.82133 112.18310 35857 ft 472 kts 306°
2026-04-24 20:11 6.85977 112.12927 35857 ft 472 kts 306°
2026-04-24 20:12 6.89779 112.07604 35857 ft 471 kts 306°
2026-04-24 20:12 6.93599 112.02254 35857 ft 470 kts 306°
2026-04-24 20:13 6.97413 111.96910 35856 ft 471 kts 305°
2026-04-24 20:13 7.01230 111.91559 35858 ft 471 kts 305°
2026-04-24 20:14 7.05053 111.86195 35859 ft 471 kts 306°
2026-04-24 20:14 7.08858 111.80855 35859 ft 471 kts 306°
2026-04-24 20:15 7.12692 111.75472 35859 ft 471 kts 306°
2026-04-24 20:15 7.16509 111.70112 35858 ft 470 kts 306°
2026-04-24 20:16 7.20317 111.64760 35858 ft 470 kts 306°
2026-04-24 20:16 7.24118 111.59412 35857 ft 470 kts 306°
2026-04-24 20:17 7.27904 111.54090 35857 ft 471 kts 306°
2026-04-24 20:17 7.33643 111.46046 35857 ft 470 kts 306°
2026-04-24 20:18 7.37438 111.40712 35857 ft 470 kts 306°
2026-04-24 20:18 7.41259 111.35335 35858 ft 470 kts 306°
2026-04-24 20:19 7.45055 111.29992 35857 ft 469 kts 305°
2026-04-24 20:19 7.48833 111.24670 35856 ft 469 kts 305°
2026-04-24 20:20 7.52637 111.19308 35855 ft 469 kts 305°
2026-04-24 20:20 7.56421 111.13972 35858 ft 469 kts 305°
2026-04-24 20:21 7.60202 111.08640 35864 ft 468 kts 305°
2026-04-24 20:21 7.63988 111.03298 35871 ft 468 kts 306°
2026-04-24 20:22 7.67789 110.97934 35875 ft 469 kts 306°
2026-04-24 20:22 7.71570 110.92596 35875 ft 468 kts 306°
2026-04-24 20:23 7.75339 110.87274 35872 ft 468 kts 305°
2026-04-24 20:23 7.79111 110.81945 35873 ft 467 kts 305°
2026-04-24 20:24 7.82885 110.76609 35873 ft 467 kts 305°
2026-04-24 20:24 7.86658 110.71274 35874 ft 466 kts 305°
2026-04-24 20:25 7.90416 110.65958 35875 ft 466 kts 305°
2026-04-24 20:25 7.94162 110.60657 35872 ft 467 kts 305°
2026-04-24 20:26 7.97941 110.55307 35869 ft 467 kts 305°
2026-04-24 20:26 8.01711 110.49966 35864 ft 467 kts 305°
2026-04-24 20:27 8.05474 110.44634 35858 ft 467 kts 305°
2026-04-24 20:27 8.09226 110.39313 35858 ft 466 kts 305°
2026-04-24 20:28 8.12981 110.33985 35858 ft 466 kts 305°
2026-04-24 20:28 8.16719 110.28673 35859 ft 466 kts 305°
2026-04-24 20:29 8.20476 110.23337 35856 ft 466 kts 305°
2026-04-24 20:29 8.24259 110.17999 35858 ft 466 kts 305°
2026-04-24 20:30 8.28031 110.12695 35860 ft 467 kts 305°
2026-04-24 20:30 8.31823 110.07349 35861 ft 467 kts 305°
2026-04-24 20:31 8.35585 110.02037 35863 ft 466 kts 305°
2026-04-24 20:31 8.39367 109.96693 35863 ft 466 kts 305°
2026-04-24 20:32 8.43130 109.91371 35862 ft 467 kts 305°
2026-04-24 20:32 8.46886 109.86060 35865 ft 467 kts 305°
2026-04-24 20:33 8.50664 109.80714 35863 ft 467 kts 305°
2026-04-24 20:33 8.54422 109.75393 35861 ft 467 kts 305°
2026-04-24 20:34 8.58210 109.70028 35859 ft 467 kts 305°
2026-04-24 20:34 8.61966 109.64706 35855 ft 467 kts 305°
2026-04-24 20:35 8.65731 109.59369 35855 ft 467 kts 305°
2026-04-24 20:35 8.69496 109.54028 35862 ft 467 kts 305°
2026-04-24 20:36 8.73264 109.48679 35865 ft 468 kts 305°
2026-04-24 20:36 8.77028 109.43330 35873 ft 468 kts 305°
2026-04-24 20:37 8.80812 109.37950 35874 ft 468 kts 305°
2026-04-24 20:37 8.84566 109.32619 35877 ft 468 kts 305°
2026-04-24 20:38 8.88357 109.27228 35878 ft 468 kts 305°
2026-04-24 20:38 8.92127 109.21858 35876 ft 468 kts 305°
2026-04-24 20:39 8.95876 109.16509 35877 ft 467 kts 305°
2026-04-24 20:39 8.99623 109.11156 35879 ft 468 kts 305°
2026-04-24 20:40 9.03336 109.05850 35876 ft 469 kts 305°
2026-04-24 20:40 9.07106 109.00462 35879 ft 469 kts 305°
2026-04-24 20:41 9.10867 108.95084 35876 ft 468 kts 305°
2026-04-24 20:41 9.14635 108.89693 35876 ft 468 kts 305°
2026-04-24 20:42 9.18379 108.84332 35877 ft 468 kts 305°
2026-04-24 20:42 9.22130 108.78960 35877 ft 467 kts 305°
2026-04-24 20:43 9.25886 108.73578 35875 ft 467 kts 305°
2026-04-24 20:43 9.29634 108.68205 35877 ft 467 kts 305°
2026-04-24 20:44 9.33371 108.62843 35878 ft 468 kts 305°
2026-04-24 20:44 9.37103 108.57484 35875 ft 468 kts 305°
2026-04-24 20:45 9.40849 108.52099 35871 ft 467 kts 305°
2026-04-24 20:45 9.44595 108.46714 35875 ft 467 kts 305°
2026-04-24 20:46 9.48437 108.41431 35874 ft 467 kts 308°
2026-04-24 20:46 9.52393 108.36221 35870 ft 467 kts 308°
2026-04-24 20:47 9.56383 108.30959 35864 ft 468 kts 307°
2026-04-24 20:47 9.60376 108.25679 35862 ft 469 kts 307°
2026-04-24 20:48 9.64330 108.20444 35860 ft 468 kts 307°
2026-04-24 20:48 9.68267 108.15228 35860 ft 468 kts 308°
2026-04-24 20:49 9.72226 108.09981 35858 ft 468 kts 308°
2026-04-24 20:49 9.76181 108.04737 35859 ft 469 kts 308°
2026-04-24 20:50 9.80148 107.99473 35858 ft 470 kts 308°
2026-04-24 20:50 9.84108 107.94219 35860 ft 470 kts 308°
2026-04-24 20:51 9.88080 107.88945 35870 ft 471 kts 307°
2026-04-24 20:51 9.92056 107.83662 35874 ft 472 kts 308°
2026-04-24 20:52 9.96026 107.78380 35876 ft 471 kts 308°
2026-04-24 20:52 10.00028 107.73059 35877 ft 472 kts 308°
2026-04-24 20:53 10.03989 107.67784 35878 ft 472 kts 308°
2026-04-24 20:53 10.07974 107.62472 35879 ft 472 kts 307°
2026-04-24 20:54 10.11926 107.57203 35877 ft 473 kts 307°
2026-04-24 20:54 10.15914 107.51907 35878 ft 473 kts 308°
2026-04-24 20:55 10.19930 107.46609 35878 ft 473 kts 308°
2026-04-24 20:55 10.23920 107.41325 35876 ft 472 kts 308°
2026-04-24 20:56 10.27914 107.36024 35872 ft 472 kts 308°
2026-04-24 20:56 10.31907 107.30724 35868 ft 473 kts 308°
2026-04-24 20:57 10.35904 107.25431 35869 ft 473 kts 307°
2026-04-24 20:57 10.39922 107.20110 35868 ft 473 kts 308°
2026-04-24 20:58 10.43916 107.14804 35870 ft 473 kts 308°
2026-04-24 20:58 10.47911 107.09493 35866 ft 473 kts 308°
2026-04-24 20:59 10.51904 107.04237 35870 ft 473 kts 308°
2026-04-24 20:59 10.55969 106.98954 35868 ft 473 kts 308°
2026-04-24 21:00 10.60019 106.93674 35870 ft 474 kts 308°
2026-04-24 21:00 10.64049 106.88407 35868 ft 474 kts 308°
2026-04-24 21:01 10.68097 106.83106 35870 ft 475 kts 308°
2026-04-24 21:01 10.72131 106.77816 35869 ft 475 kts 308°
2026-04-24 21:02 10.76204 106.72476 35870 ft 475 kts 308°
2026-04-24 21:02 10.80100 106.67072 35872 ft 476 kts 304°
2026-04-24 21:03 10.83449 106.61239 35876 ft 477 kts 297°
2026-04-24 21:03 10.86188 106.55149 35878 ft 477 kts 294°
2026-04-24 21:04 10.88827 106.48943 35879 ft 478 kts 294°
2026-04-24 21:04 10.91489 106.42775 35879 ft 478 kts 294°
2026-04-24 21:05 10.94169 106.36585 35880 ft 478 kts 294°
2026-04-24 21:05 10.96826 106.30427 35880 ft 478 kts 294°
2026-04-24 21:06 10.99499 106.24213 35879 ft 479 kts 294°
2026-04-24 21:06 11.02157 106.18034 35881 ft 479 kts 294°
2026-04-24 21:07 11.04667 106.11720 35880 ft 479 kts 292°
2026-04-24 21:07 11.07113 106.05424 35878 ft 480 kts 292°
2026-04-24 21:08 11.09052 105.98975 35878 ft 480 kts 283°
2026-04-24 21:08 11.09920 105.92225 35877 ft 482 kts 273°
2026-04-24 21:09 11.09661 105.85434 35874 ft 483 kts 263°
2026-04-24 21:09 11.08681 105.78686 35868 ft 483 kts 263°
2026-04-24 21:10 11.08292 105.71887 35860 ft 482 kts 272°
2026-04-24 21:10 11.08950 105.65149 35858 ft 481 kts 281°
2026-04-24 21:11 11.10622 105.58587 35859 ft 480 kts 290°
2026-04-24 21:11 11.12861 105.52166 35858 ft 480 kts 290°
2026-04-24 21:12 11.15108 105.45792 35857 ft 480 kts 290°
2026-04-24 21:12 11.17336 105.39420 35857 ft 480 kts 290°
2026-04-24 21:13 11.19565 105.33017 35856 ft 480 kts 290°
2026-04-24 21:13 11.21798 105.26587 35858 ft 480 kts 290°
2026-04-24 21:14 11.24023 105.20175 35856 ft 481 kts 290°
2026-04-24 21:14 11.26239 105.13780 35859 ft 481 kts 290°
2026-04-24 21:15 11.28463 105.07355 35857 ft 480 kts 290°
2026-04-24 21:15 11.30677 105.00945 35858 ft 480 kts 290°
2026-04-24 21:16 11.32944 104.94549 35858 ft 480 kts 292°
2026-04-24 21:16 11.35736 104.88403 35860 ft 479 kts 299°
2026-04-24 21:17 11.39134 104.82563 35862 ft 478 kts 303°
2026-04-24 21:17 11.42682 104.76814 35863 ft 478 kts 303°
2026-04-24 21:18 11.46205 104.71091 35864 ft 478 kts 303°
2026-04-24 21:18 11.49719 104.65366 35867 ft 478 kts 303°
2026-04-24 21:19 11.53242 104.59618 35870 ft 477 kts 303°
2026-04-24 21:19 11.56751 104.53889 35871 ft 477 kts 303°
2026-04-24 21:20 11.62021 104.45274 35876 ft 476 kts 303°
2026-04-24 21:21 11.65530 104.39532 35886 ft 476 kts 303°
2026-04-24 21:21 11.69034 104.33795 35897 ft 476 kts 303°
2026-04-24 21:22 11.72549 104.28033 35910 ft 476 kts 303°
2026-04-24 21:22 11.76043 104.22298 35922 ft 476 kts 303°
2026-04-24 21:23 11.79523 104.16597 35930 ft 476 kts 303°
2026-04-24 21:23 11.83031 104.10856 35928 ft 475 kts 303°
2026-04-24 21:24 11.86510 104.05138 35919 ft 475 kts 303°
2026-04-24 21:24 11.89987 103.99420 35904 ft 475 kts 303°
2026-04-24 21:25 11.93485 103.93691 35906 ft 475 kts 303°
2026-04-24 21:25 11.96959 103.88000 35914 ft 475 kts 303°
2026-04-24 21:26 12.00439 103.82282 35917 ft 474 kts 303°
2026-04-24 21:26 12.03926 103.76543 35918 ft 474 kts 303°
2026-04-24 21:27 12.07382 103.70846 35927 ft 474 kts 303°
2026-04-24 21:27 12.10875 103.65089 35936 ft 474 kts 303°
2026-04-24 21:28 12.14336 103.59377 35942 ft 474 kts 303°
2026-04-24 21:28 12.17801 103.53661 35941 ft 474 kts 303°
2026-04-24 21:29 12.21251 103.47961 35936 ft 473 kts 303°
2026-04-24 21:29 12.24715 103.42236 35934 ft 473 kts 303°
2026-04-24 21:30 12.28185 103.36497 35939 ft 473 kts 303°
2026-04-24 21:30 12.31626 103.30804 35942 ft 473 kts 302°
2026-04-24 21:31 12.35089 103.25068 35945 ft 473 kts 302°
2026-04-24 21:31 12.38542 103.19348 35945 ft 473 kts 302°
2026-04-24 21:32 12.41968 103.13668 35953 ft 472 kts 302°
2026-04-24 21:32 12.45421 103.07943 35971 ft 472 kts 302°
2026-04-24 21:33 12.48879 103.02201 36002 ft 472 kts 302°
2026-04-24 21:33 12.52298 102.96523 36016 ft 472 kts 302°
2026-04-24 21:34 12.55755 102.90773 35981 ft 473 kts 302°
2026-04-24 21:34 12.59184 102.85069 35935 ft 473 kts 302°
2026-04-24 21:35 12.62641 102.79313 35906 ft 472 kts 302°
2026-04-24 21:35 12.66075 102.73591 35885 ft 472 kts 302°
2026-04-24 21:36 12.69504 102.67871 35890 ft 472 kts 302°
2026-04-24 21:36 12.72933 102.62144 35903 ft 473 kts 302°
2026-04-24 21:37 12.76354 102.56392 35922 ft 473 kts 301°
2026-04-24 21:37 12.79357 102.50397 35936 ft 474 kts 295°
2026-04-24 21:38 12.81808 102.44170 35930 ft 474 kts 292°
2026-04-24 21:38 12.84182 102.37882 35908 ft 474 kts 292°
2026-04-24 21:38 12.85379 102.34715 35735 ft 471 kts 292°
2026-04-24 21:39 12.86561 102.31590 35218 ft 469 kts 292°
2026-04-24 21:39 12.87736 102.28493 34609 ft 467 kts 291°
2026-04-24 21:39 12.88918 102.25381 34025 ft 465 kts 292°
2026-04-24 21:39 12.90086 102.22302 33372 ft 464 kts 292°
2026-04-24 21:40 12.91259 102.19225 32652 ft 465 kts 292°
2026-04-24 21:40 12.92436 102.16140 31974 ft 466 kts 292°
2026-04-24 21:40 12.93613 102.13044 31271 ft 468 kts 292°
2026-04-24 21:40 12.94791 102.09945 30542 ft 470 kts 292°
2026-04-24 21:41 12.95968 102.06840 29780 ft 473 kts 292°
2026-04-24 21:41 12.97153 102.03713 28995 ft 476 kts 292°
2026-04-24 21:41 12.98360 102.00527 28192 ft 478 kts 292°
2026-04-24 21:41 12.99556 101.97368 27416 ft 481 kts 292°
2026-04-24 21:42 13.00753 101.94205 26848 ft 478 kts 292°
2026-04-24 21:42 13.01952 101.91029 26402 ft 472 kts 292°
2026-04-24 21:42 13.03132 101.87904 25903 ft 468 kts 292°
2026-04-24 21:42 13.04311 101.84818 25382 ft 465 kts 293°
2026-04-24 21:43 13.05612 101.81815 24864 ft 461 kts 296°
2026-04-24 21:43 13.07026 101.78871 24337 ft 458 kts 297°
2026-04-24 21:43 13.08430 101.75986 23820 ft 455 kts 297°
2026-04-24 21:43 13.09840 101.73094 23312 ft 452 kts 297°
2026-04-24 21:44 13.11235 101.70229 22814 ft 449 kts 297°
2026-04-24 21:44 13.12612 101.67396 22322 ft 446 kts 297°
2026-04-24 21:44 13.13995 101.64542 21832 ft 443 kts 297°
2026-04-24 21:44 13.15349 101.61746 21353 ft 440 kts 297°
2026-04-24 21:45 13.16718 101.58919 20858 ft 437 kts 297°
2026-04-24 21:45 13.18059 101.56145 20369 ft 434 kts 297°
2026-04-24 21:45 13.19382 101.53411 19889 ft 432 kts 297°
2026-04-24 21:45 13.20720 101.50645 19407 ft 429 kts 297°
2026-04-24 21:46 13.22046 101.47903 18924 ft 427 kts 297°
2026-04-24 21:46 13.23351 101.45201 18454 ft 424 kts 296°
2026-04-24 21:46 13.24655 101.42498 17991 ft 421 kts 296°
2026-04-24 21:46 13.25936 101.39844 17536 ft 418 kts 296°
2026-04-24 21:47 13.27225 101.37170 17070 ft 416 kts 296°
2026-04-24 21:47 13.28495 101.34531 16615 ft 413 kts 296°
2026-04-24 21:47 13.29776 101.31872 16154 ft 411 kts 296°
2026-04-24 21:47 13.31025 101.29278 15697 ft 409 kts 296°
2026-04-24 21:48 13.32282 101.26668 15237 ft 407 kts 297°
2026-04-24 21:48 13.33529 101.24081 14789 ft 404 kts 297°
2026-04-24 21:48 13.34733 101.21478 14390 ft 400 kts 293°
2026-04-24 21:48 13.35664 101.18825 14223 ft 390 kts 287°
2026-04-24 21:49 13.36322 101.16148 14051 ft 381 kts 283°
2026-04-24 21:49 13.36871 101.13534 13898 ft 371 kts 282°
2026-04-24 21:49 13.37391 101.10977 13743 ft 362 kts 282°
2026-04-24 21:49 13.37902 101.08479 13523 ft 356 kts 282°
2026-04-24 21:50 13.38416 101.05986 13175 ft 354 kts 282°
2026-04-24 21:50 13.38922 101.03552 12828 ft 352 kts 283°
2026-04-24 21:50 13.39437 101.01074 12486 ft 350 kts 283°
2026-04-24 21:50 13.39942 100.98656 12149 ft 348 kts 283°
2026-04-24 21:51 13.40449 100.96229 11805 ft 346 kts 283°
2026-04-24 21:51 13.40954 100.93819 11467 ft 345 kts 283°
2026-04-24 21:51 13.41498 100.91448 11107 ft 342 kts 290°
2026-04-24 21:51 13.42674 100.89345 10859 ft 333 kts 314°
2026-04-24 21:52 13.44457 100.87839 10882 ft 334 kts 329°
2026-04-24 21:52 13.46403 100.86594 10874 ft 325 kts 330°
2026-04-24 21:52 13.48320 100.85381 10749 ft 317 kts 330°
2026-04-24 21:52 13.50159 100.84200 10584 ft 310 kts 329°
2026-04-24 21:53 13.51965 100.83028 10430 ft 303 kts 329°
2026-04-24 21:53 13.53736 100.81887 10265 ft 297 kts 333°
2026-04-24 21:53 13.55712 100.81258 9989 ft 291 kts 359°
2026-04-24 21:53 13.57705 100.81533 9711 ft 286 kts 16°
2026-04-24 21:54 13.59644 100.82089 9455 ft 285 kts 17°
2026-04-24 21:54 13.61557 100.82643 9299 ft 279 kts 17°
2026-04-24 21:54 13.63401 100.83164 9185 ft 272 kts 17°
2026-04-24 21:54 13.65227 100.83671 9054 ft 266 kts 17°
2026-04-24 21:55 13.66989 100.84156 8935 ft 260 kts 17°
2026-04-24 21:55 13.68716 100.84630 8820 ft 254 kts 17°
2026-04-24 21:55 13.70431 100.85101 8691 ft 249 kts 17°
2026-04-24 21:55 13.72088 100.85555 8488 ft 247 kts 17°
2026-04-24 21:56 13.73771 100.86015 8235 ft 247 kts 17°
2026-04-24 21:56 13.75425 100.86468 7967 ft 246 kts 17°
2026-04-24 21:56 13.77079 100.86922 7697 ft 246 kts 17°
2026-04-24 21:56 13.78734 100.87375 7425 ft 246 kts 18°
2026-04-24 21:57 13.80396 100.87830 7068 ft 245 kts 18°
2026-04-24 21:57 13.82056 100.88286 6692 ft 245 kts 18°
2026-04-24 21:57 13.83703 100.88738 6330 ft 245 kts 18°
2026-04-24 21:57 13.85344 100.89187 5982 ft 244 kts 18°
2026-04-24 21:58 13.86996 100.89641 5620 ft 243 kts 18°
2026-04-24 21:58 13.88623 100.90087 5266 ft 243 kts 18°
2026-04-24 21:58 13.90251 100.90535 4914 ft 243 kts 18°
2026-04-24 21:58 13.91950 100.90756 4504 ft 247 kts 350°
2026-04-24 21:59 13.93455 100.89954 4124 ft 250 kts 310°
2026-04-24 21:59 13.94233 100.88380 3789 ft 247 kts 277°
2026-04-24 21:59 13.94200 100.86663 3456 ft 243 kts 259°
2026-04-24 21:59 13.93912 100.84944 3122 ft 241 kts 258°
2026-04-24 22:00 13.93482 100.83293 2771 ft 238 kts 236°
2026-04-24 22:00 13.92329 100.82147 2533 ft 231 kts 203°
2026-04-24 22:00 13.90804 100.81673 2323 ft 228 kts 192°
2026-04-24 22:00 13.89252 100.81290 2102 ft 227 kts 192°
2026-04-24 22:01 13.87719 100.80933 2013 ft 223 kts 192°
2026-04-24 22:01 13.86234 100.80578 1998 ft 212 kts 192°
2026-04-24 22:01 13.84829 100.80225 1988 ft 201 kts 193°
2026-04-24 22:01 13.83504 100.79880 1980 ft 190 kts 193°
2026-04-24 22:02 13.82248 100.79549 1982 ft 182 kts 193°
2026-04-24 22:02 13.81015 100.79223 1994 ft 183 kts 193°
2026-04-24 22:02 13.79774 100.78895 1987 ft 184 kts 193°
2026-04-24 22:02 13.78514 100.78563 1799 ft 187 kts 193°
2026-04-24 22:03 13.77246 100.78228 1575 ft 185 kts 193°
2026-04-24 22:03 13.76018 100.77904 1359 ft 177 kts 193°
2026-04-24 22:03 13.74841 100.77595 1118 ft 171 kts 193°
2026-04-24 22:03 13.73700 100.77295 897 ft 164 kts 194°
2026-04-24 22:04 13.72613 100.77009 693 ft 157 kts 194°
2026-04-24 22:04 13.71579 100.76738 499 ft 151 kts 193°
2026-04-24 22:04 13.70563 100.76473 266 ft 147 kts 194°
2026-04-24 22:04 13.69600 100.76216 86 ft 141 kts 193°
2026-04-24 22:05 13.68643 100.75962 18 ft 139 kts 193°
2026-04-24 22:05 13.67857 100.75758 17 ft 89 kts 194°
2026-04-24 22:05 13.67407 100.75639 17 ft 47 kts 195°
2026-04-24 22:05 13.67178 100.75544 17 ft 30 kts 221°
2026-04-24 22:06 13.67119 100.75420 17 ft 13 kts 309°
2026-04-24 22:06 13.67211 100.75410 17 ft 13 kts 15°
2026-04-24 22:06 13.67308 100.75436 17 ft 14 kts 14°
2026-04-24 22:06 13.67410 100.75462 17 ft 15 kts 13°
2026-04-24 22:07 13.67516 100.75488 17 ft 15 kts 13°
2026-04-24 22:07 13.67625 100.75517 17 ft 16 kts 15°
2026-04-24 22:07 13.67738 100.75547 17 ft 16 kts 15°
2026-04-24 22:07 13.67853 100.75578 17 ft 17 kts 15°
2026-04-24 22:08 13.67971 100.75611 17 ft 17 kts 15°
2026-04-24 22:08 13.68086 100.75630 17 ft 14 kts 349°
2026-04-24 22:08 13.68170 100.75577 17 ft 14 kts 342°
2026-04-24 22:08 13.68246 100.75513 17 ft 14 kts 292°
2026-04-24 22:09 13.68275 100.75408 17 ft 15 kts 284°
2026-04-24 22:09 13.68302 100.75300 17 ft 16 kts 284°
2026-04-24 22:09 13.68330 100.75187 17 ft 16 kts 284°
2026-04-24 22:09 13.68357 100.75071 17 ft 16 kts 284°
2026-04-24 22:10 13.68387 100.74957 17 ft 15 kts 285°
2026-04-24 22:10 13.68415 100.74847 17 ft 16 kts 284°
2026-04-24 22:10 13.68443 100.74733 17 ft 16 kts 284°
2026-04-24 22:10 13.68470 100.74627 17 ft 11 kts 285°
2026-04-24 22:11 13.68455 100.74595 17 ft 6 kts 196°
2026-04-24 22:11 13.68407 100.74582 17 ft 8 kts 195°
2026-04-24 22:11 13.68388 100.74577 17 ft 0 kts 195°